Year,Month,Day,Hour,Minute,Value (Times are PST for temperature in C)
2006,04,23,00,00,4.20
2006,04,23,00,01,4.20
2006,04,23,00,02,4.20
2006,04,23,00,03,4.20
2006,04,23,00,04,4.20
2006,04,23,00,05,4.20
2006,04,23,00,06,4.20
2006,04,23,00,07,4.10
2006,04,23,00,08,4.10
2006,04,23,00,09,4.10
2006,04,23,00,10,4.10
2006,04,23,00,11,4.10
2006,04,23,00,12,4.10
2006,04,23,00,13,4.10
2006,04,23,00,14,4.10
2006,04,23,00,15,4.00
2006,04,23,00,16,4.00
2006,04,23,00,17,4.10
2006,04,23,00,18,4.10
2006,04,23,00,19,4.10
2006,04,23,00,20,4.10
2006,04,23,00,21,4.10
2006,04,23,00,22,4.10
2006,04,23,00,23,4.10
2006,04,23,00,24,4.10
2006,04,23,00,25,4.10
2006,04,23,00,26,4.20
2006,04,23,00,27,4.20
2006,04,23,00,28,4.20
2006,04,23,00,29,4.20
2006,04,23,00,30,4.20
2006,04,23,00,31,4.20
2006,04,23,00,32,4.20
2006,04,23,00,33,4.20
2006,04,23,00,34,4.20
2006,04,23,00,35,4.20
2006,04,23,00,36,4.20
2006,04,23,00,37,4.20
2006,04,23,00,38,4.20
2006,04,23,00,39,4.20
2006,04,23,00,40,4.20
2006,04,23,00,41,4.20
2006,04,23,00,42,4.20
2006,04,23,00,43,4.20
2006,04,23,00,44,4.20
2006,04,23,00,45,4.20
2006,04,23,00,46,4.20
2006,04,23,00,47,4.20
2006,04,23,00,48,4.20
2006,04,23,00,49,4.20
2006,04,23,00,50,4.20
2006,04,23,00,51,4.20
2006,04,23,00,52,4.20
2006,04,23,00,53,4.10
2006,04,23,00,54,4.10
2006,04,23,00,55,4.10
2006,04,23,00,56,4.10
2006,04,23,00,57,4.10
2006,04,23,00,58,4.00
2006,04,23,00,59,4.00
2006,04,23,01,00,4.00
2006,04,23,01,01,4.00
2006,04,23,01,02,4.00
2006,04,23,01,03,3.90
2006,04,23,01,04,3.90
2006,04,23,01,05,3.90
2006,04,23,01,06,3.90
2006,04,23,01,07,3.80
2006,04,23,01,08,3.80
2006,04,23,01,09,3.80
2006,04,23,01,10,3.80
2006,04,23,01,11,3.80
2006,04,23,01,12,3.80
2006,04,23,01,13,3.80
2006,04,23,01,14,3.70
2006,04,23,01,15,3.70
2006,04,23,01,16,3.70
2006,04,23,01,17,3.70
2006,04,23,01,18,3.70
2006,04,23,01,19,3.70
2006,04,23,01,20,3.70
2006,04,23,01,21,3.80
2006,04,23,01,22,3.80
2006,04,23,01,23,3.80
2006,04,23,01,24,3.80
2006,04,23,01,25,3.80
2006,04,23,01,26,3.80
2006,04,23,01,27,3.80
2006,04,23,01,28,3.80
2006,04,23,01,29,3.80
2006,04,23,01,30,3.80
2006,04,23,01,31,3.80
2006,04,23,01,32,3.80
2006,04,23,01,33,3.80
2006,04,23,01,34,3.80
2006,04,23,01,35,3.80
2006,04,23,01,36,3.80
2006,04,23,01,37,3.80
2006,04,23,01,38,3.80
2006,04,23,01,39,3.80
2006,04,23,01,40,3.90
2006,04,23,01,41,3.90
2006,04,23,01,42,3.90
2006,04,23,01,43,3.90
2006,04,23,01,44,3.90
2006,04,23,01,45,3.90
2006,04,23,01,46,3.90
2006,04,23,01,47,3.90
2006,04,23,01,48,3.90
2006,04,23,01,49,3.90
2006,04,23,01,50,3.80
2006,04,23,01,51,3.80
2006,04,23,01,52,3.80
2006,04,23,01,53,3.80
2006,04,23,01,54,3.80
2006,04,23,01,55,3.80
2006,04,23,01,56,3.80
2006,04,23,01,57,3.80
2006,04,23,01,58,3.70
2006,04,23,01,59,3.70
2006,04,23,02,00,3.70
2006,04,23,02,01,3.70
2006,04,23,02,02,3.60
2006,04,23,02,03,3.60
2006,04,23,02,04,3.60
2006,04,23,02,05,3.60
2006,04,23,02,06,3.60
2006,04,23,02,07,3.60
2006,04,23,02,08,3.60
2006,04,23,02,09,3.60
2006,04,23,02,10,3.60
2006,04,23,02,11,3.60
2006,04,23,02,12,3.60
2006,04,23,02,13,3.50
2006,04,23,02,14,3.50
2006,04,23,02,15,3.50
2006,04,23,02,16,3.50
2006,04,23,02,17,3.50
2006,04,23,02,18,3.50
2006,04,23,02,19,3.40
2006,04,23,02,20,3.40
2006,04,23,02,21,3.40
2006,04,23,02,22,3.40
2006,04,23,02,23,3.50
2006,04,23,02,24,3.50
2006,04,23,02,25,3.50
2006,04,23,02,26,3.50
2006,04,23,02,27,3.50
2006,04,23,02,28,3.50
2006,04,23,02,29,3.50
2006,04,23,02,30,3.50
2006,04,23,02,31,3.50
2006,04,23,02,32,3.50
2006,04,23,02,33,3.60
2006,04,23,02,34,3.60
2006,04,23,02,35,3.50
2006,04,23,02,36,3.50
2006,04,23,02,37,3.50
2006,04,23,02,38,3.50
2006,04,23,02,39,3.50
2006,04,23,02,40,3.50
2006,04,23,02,41,3.50
2006,04,23,02,42,3.50
2006,04,23,02,43,3.40
2006,04,23,02,44,3.40
2006,04,23,02,45,3.40
2006,04,23,02,46,3.40
2006,04,23,02,47,3.40
2006,04,23,02,48,3.40
2006,04,23,02,49,3.30
2006,04,23,02,50,3.30
2006,04,23,02,51,3.30
2006,04,23,02,52,3.30
2006,04,23,02,53,3.30
2006,04,23,02,54,3.30
2006,04,23,02,55,3.20
2006,04,23,02,56,3.20
2006,04,23,02,57,3.20
2006,04,23,02,58,3.20
2006,04,23,02,59,3.20
2006,04,23,03,00,3.20
2006,04,23,03,01,3.20
2006,04,23,03,02,3.20
2006,04,23,03,03,3.20
2006,04,23,03,04,3.20
2006,04,23,03,05,3.20
2006,04,23,03,06,3.10
2006,04,23,03,07,3.10
2006,04,23,03,08,3.10
2006,04,23,03,09,3.10
2006,04,23,03,10,3.10
2006,04,23,03,11,3.10
2006,04,23,03,12,3.10
2006,04,23,03,13,3.00
2006,04,23,03,14,2.90
2006,04,23,03,15,2.90
2006,04,23,03,16,2.90
2006,04,23,03,17,2.90
2006,04,23,03,18,2.90
2006,04,23,03,19,2.90
2006,04,23,03,20,2.80
2006,04,23,03,21,2.80
2006,04,23,03,22,2.80
2006,04,23,03,23,2.80
2006,04,23,03,24,2.80
2006,04,23,03,25,2.80
2006,04,23,03,26,2.80
2006,04,23,03,27,2.80
2006,04,23,03,28,2.80
2006,04,23,03,29,2.80
2006,04,23,03,30,2.80
2006,04,23,03,31,2.80
2006,04,23,03,32,2.80
2006,04,23,03,33,2.80
2006,04,23,03,34,2.80
2006,04,23,03,35,2.80
2006,04,23,03,36,2.80
2006,04,23,03,37,2.80
2006,04,23,03,38,2.80
2006,04,23,03,39,2.80
2006,04,23,03,40,2.80
2006,04,23,03,41,2.80
2006,04,23,03,42,2.80
2006,04,23,03,43,2.80
2006,04,23,03,44,2.80
2006,04,23,03,45,2.80
2006,04,23,03,46,2.80
2006,04,23,03,47,2.80
2006,04,23,03,48,2.70
2006,04,23,03,49,2.70
2006,04,23,03,50,2.70
2006,04,23,03,51,2.70
2006,04,23,03,52,2.70
2006,04,23,03,53,2.70
2006,04,23,03,54,2.70
2006,04,23,03,55,2.70
2006,04,23,03,56,2.70
2006,04,23,03,57,2.70
2006,04,23,03,58,2.60
2006,04,23,03,59,2.60
2006,04,23,04,00,2.60
2006,04,23,04,01,2.50
2006,04,23,04,02,2.50
2006,04,23,04,03,2.50
2006,04,23,04,04,2.50
2006,04,23,04,05,2.50
2006,04,23,04,06,2.50
2006,04,23,04,07,2.50
2006,04,23,04,08,2.50
2006,04,23,04,09,2.50
2006,04,23,04,10,2.50
2006,04,23,04,11,2.50
2006,04,23,04,12,2.50
2006,04,23,04,13,2.50
2006,04,23,04,14,2.50
2006,04,23,04,15,2.50
2006,04,23,04,16,2.50
2006,04,23,04,17,2.60
2006,04,23,04,18,2.60
2006,04,23,04,19,2.60
2006,04,23,04,20,2.50
2006,04,23,04,21,2.50
2006,04,23,04,22,2.50
2006,04,23,04,23,2.50
2006,04,23,04,24,2.50
2006,04,23,04,25,2.40
2006,04,23,04,26,2.40
2006,04,23,04,27,2.40
2006,04,23,04,28,2.40
2006,04,23,04,29,2.50
2006,04,23,04,30,2.50
2006,04,23,04,31,2.50
2006,04,23,04,32,2.50
2006,04,23,04,33,2.50
2006,04,23,04,34,2.60
2006,04,23,04,35,2.60
2006,04,23,04,36,2.60
2006,04,23,04,37,2.60
2006,04,23,04,38,2.60
2006,04,23,04,39,2.60
2006,04,23,04,40,2.60
2006,04,23,04,41,2.70
2006,04,23,04,42,2.70
2006,04,23,04,43,2.70
2006,04,23,04,44,2.70
2006,04,23,04,45,2.70
2006,04,23,04,46,2.70
2006,04,23,04,47,2.70
2006,04,23,04,48,2.70
2006,04,23,04,49,2.70
2006,04,23,04,50,2.70
2006,04,23,04,51,2.70
2006,04,23,04,52,2.70
2006,04,23,04,53,2.80
2006,04,23,04,54,2.80
2006,04,23,04,55,2.80
2006,04,23,04,56,2.80
2006,04,23,04,57,2.80
2006,04,23,04,58,2.80
2006,04,23,04,59,2.70
2006,04,23,05,00,2.70
2006,04,23,05,01,2.70
2006,04,23,05,02,2.70
2006,04,23,05,03,2.70
2006,04,23,05,04,2.70
2006,04,23,05,05,2.60
2006,04,23,05,06,2.60
2006,04,23,05,07,2.50
2006,04,23,05,08,2.50
2006,04,23,05,09,2.40
2006,04,23,05,10,2.50
2006,04,23,05,11,2.50
2006,04,23,05,12,2.50
2006,04,23,05,13,2.40
2006,04,23,05,14,2.50
2006,04,23,05,15,2.50
2006,04,23,05,16,2.50
2006,04,23,05,17,2.40
2006,04,23,05,18,2.40
2006,04,23,05,19,2.40
2006,04,23,05,20,2.40
2006,04,23,05,21,2.40
2006,04,23,05,22,2.40
2006,04,23,05,23,2.30
2006,04,23,05,24,2.30
2006,04,23,05,25,2.30
2006,04,23,05,26,2.30
2006,04,23,05,27,2.30
2006,04,23,05,28,2.20
2006,04,23,05,29,2.20
2006,04,23,05,30,2.20
2006,04,23,05,31,2.20
2006,04,23,05,32,2.20
2006,04,23,05,33,2.30
2006,04,23,05,34,2.40
2006,04,23,05,35,2.50
2006,04,23,05,36,2.70
2006,04,23,05,37,2.80
2006,04,23,05,38,2.80
2006,04,23,05,39,2.90
2006,04,23,05,40,2.90
2006,04,23,05,41,3.00
2006,04,23,05,42,3.10
2006,04,23,05,43,3.10
2006,04,23,05,44,3.10
2006,04,23,05,45,3.10
2006,04,23,05,46,3.10
2006,04,23,05,47,3.10
2006,04,23,05,48,3.10
2006,04,23,05,49,3.10
2006,04,23,05,50,3.10
2006,04,23,05,51,3.10
2006,04,23,05,52,3.10
2006,04,23,05,53,3.20
2006,04,23,05,54,3.20
2006,04,23,05,55,3.20
2006,04,23,05,56,3.20
2006,04,23,05,57,3.20
2006,04,23,05,58,3.20
2006,04,23,05,59,3.10
2006,04,23,06,00,3.10
2006,04,23,06,01,3.10
2006,04,23,06,02,3.10
2006,04,23,06,03,3.10
2006,04,23,06,04,3.10
2006,04,23,06,05,3.10
2006,04,23,06,06,3.10
2006,04,23,06,07,3.10
2006,04,23,06,08,3.10
2006,04,23,06,09,3.20
2006,04,23,06,10,3.20
2006,04,23,06,11,3.30
2006,04,23,06,12,3.40
2006,04,23,06,13,3.50
2006,04,23,06,14,3.60
2006,04,23,06,15,3.60
2006,04,23,06,16,3.70
2006,04,23,06,17,3.80
2006,04,23,06,18,3.80
2006,04,23,06,19,3.80
2006,04,23,06,20,3.80
2006,04,23,06,21,3.80
2006,04,23,06,22,3.80
2006,04,23,06,23,3.80
2006,04,23,06,24,3.80
2006,04,23,06,25,3.70
2006,04,23,06,26,3.70
2006,04,23,06,27,3.70
2006,04,23,06,28,3.70
2006,04,23,06,29,3.70
2006,04,23,06,30,3.80
2006,04,23,06,31,3.80
2006,04,23,06,32,3.80
2006,04,23,06,33,3.80
2006,04,23,06,34,3.80
2006,04,23,06,35,3.80
2006,04,23,06,36,3.80
2006,04,23,06,37,3.80
2006,04,23,06,38,3.80
2006,04,23,06,39,3.80
2006,04,23,06,40,3.80
2006,04,23,06,41,3.80
2006,04,23,06,42,3.80
2006,04,23,06,43,3.80
2006,04,23,06,44,3.70
2006,04,23,06,45,3.70
2006,04,23,06,46,3.70
2006,04,23,06,47,3.70
2006,04,23,06,48,3.70
2006,04,23,06,49,3.60
2006,04,23,06,50,3.60
2006,04,23,06,51,3.70
2006,04,23,06,52,3.70
2006,04,23,06,53,3.70
2006,04,23,06,54,3.80
2006,04,23,06,55,3.90
2006,04,23,06,56,3.90
2006,04,23,06,57,4.00
2006,04,23,06,58,4.00
2006,04,23,06,59,4.10
2006,04,23,07,00,4.20
2006,04,23,07,01,4.20
2006,04,23,07,02,4.10
2006,04,23,07,03,4.00
2006,04,23,07,04,4.00
2006,04,23,07,05,4.10
2006,04,23,07,06,4.10
2006,04,23,07,07,4.10
2006,04,23,07,08,4.10
2006,04,23,07,09,4.10
2006,04,23,07,10,4.20
2006,04,23,07,11,4.20
2006,04,23,07,12,4.30
2006,04,23,07,13,4.40
2006,04,23,07,14,4.50
2006,04,23,07,15,4.50
2006,04,23,07,16,4.50
2006,04,23,07,17,4.60
2006,04,23,07,18,4.60
2006,04,23,07,19,4.60
2006,04,23,07,20,4.70
2006,04,23,07,21,4.90
2006,04,23,07,22,4.90
2006,04,23,07,23,5.10
2006,04,23,07,24,5.10
2006,04,23,07,25,5.20
2006,04,23,07,26,5.30
2006,04,23,07,27,5.40
2006,04,23,07,28,5.40
2006,04,23,07,29,5.50
2006,04,23,07,30,5.60
2006,04,23,07,31,5.70
2006,04,23,07,32,5.90
2006,04,23,07,33,6.00
2006,04,23,07,34,6.10
2006,04,23,07,35,6.20
2006,04,23,07,36,6.20
2006,04,23,07,37,6.30
2006,04,23,07,38,6.40
2006,04,23,07,39,6.40
2006,04,23,07,40,6.60
2006,04,23,07,41,6.60
2006,04,23,07,42,6.80
2006,04,23,07,43,6.80
2006,04,23,07,44,6.90
2006,04,23,07,45,7.10
2006,04,23,07,46,7.20
2006,04,23,07,47,7.30
2006,04,23,07,48,7.40
2006,04,23,07,49,7.50
2006,04,23,07,50,7.60
2006,04,23,07,51,7.70
2006,04,23,07,52,7.80
2006,04,23,07,53,7.90
2006,04,23,07,54,8.00
2006,04,23,07,55,8.10
2006,04,23,07,56,8.20
2006,04,23,07,57,8.40
2006,04,23,07,58,8.50
2006,04,23,07,59,8.60
2006,04,23,08,00,8.70
2006,04,23,08,01,8.90
2006,04,23,08,02,9.00
2006,04,23,08,03,9.10
2006,04,23,08,04,9.20
2006,04,23,08,05,9.30
2006,04,23,08,06,9.40
2006,04,23,08,07,9.50
2006,04,23,08,08,9.60
2006,04,23,08,09,9.70
2006,04,23,08,10,9.70
2006,04,23,08,11,9.80
2006,04,23,08,12,9.90
2006,04,23,08,13,10.00
2006,04,23,08,14,10.10
2006,04,23,08,15,10.10
2006,04,23,08,16,10.30
2006,04,23,08,17,10.40
2006,04,23,08,18,10.60
2006,04,23,08,19,10.60
2006,04,23,08,20,10.70
2006,04,23,08,21,10.90
2006,04,23,08,22,11.00
2006,04,23,08,23,11.20
2006,04,23,08,24,11.40
2006,04,23,08,25,11.50
2006,04,23,08,26,11.70
2006,04,23,08,27,11.80
2006,04,23,08,28,11.80
2006,04,23,08,29,11.80
2006,04,23,08,30,11.80
2006,04,23,08,31,11.90
2006,04,23,08,32,12.00
2006,04,23,08,33,12.10
2006,04,23,08,34,12.20
2006,04,23,08,35,12.30
2006,04,23,08,36,12.30
2006,04,23,08,37,12.40
2006,04,23,08,38,12.50
2006,04,23,08,39,12.60
2006,04,23,08,40,12.70
2006,04,23,08,41,12.80
2006,04,23,08,42,12.80
2006,04,23,08,43,12.90
2006,04,23,08,44,13.00
2006,04,23,08,45,13.10
2006,04,23,08,46,13.10
2006,04,23,08,47,13.20
2006,04,23,08,48,13.20
2006,04,23,08,49,13.20
2006,04,23,08,50,13.30
2006,04,23,08,51,13.30
2006,04,23,08,52,13.40
2006,04,23,08,53,13.50
2006,04,23,08,54,13.60
2006,04,23,08,55,13.70
2006,04,23,08,56,13.80
2006,04,23,08,57,13.90
2006,04,23,08,58,14.00
2006,04,23,08,59,14.00
2006,04,23,09,00,14.20
2006,04,23,09,01,14.30
2006,04,23,09,02,14.30
2006,04,23,09,03,14.40
2006,04,23,09,04,14.50
2006,04,23,09,05,14.60
2006,04,23,09,06,14.70
2006,04,23,09,07,14.80
2006,04,23,09,08,14.80
2006,04,23,09,09,14.80
2006,04,23,09,10,14.80
2006,04,23,09,11,14.80
2006,04,23,09,12,14.80
2006,04,23,09,13,14.80
2006,04,23,09,14,14.90
2006,04,23,09,15,15.00
2006,04,23,09,16,15.10
2006,04,23,09,17,15.20
2006,04,23,09,18,15.30
2006,04,23,09,19,15.30
2006,04,23,09,20,15.30
2006,04,23,09,21,15.30
2006,04,23,09,22,15.40
2006,04,23,09,23,15.40
2006,04,23,09,24,15.50
2006,04,23,09,25,15.50
2006,04,23,09,26,15.40
2006,04,23,09,27,15.40
2006,04,23,09,28,15.40
2006,04,23,09,29,15.50
2006,04,23,09,30,15.60
2006,04,23,09,31,15.60
2006,04,23,09,32,15.60
2006,04,23,09,33,15.50
2006,04,23,09,34,15.50
2006,04,23,09,35,15.60
2006,04,23,09,36,15.60
2006,04,23,09,37,15.60
2006,04,23,09,38,15.70
2006,04,23,09,39,15.80
2006,04,23,09,40,15.80
2006,04,23,09,41,15.90
2006,04,23,09,42,15.90
2006,04,23,09,43,15.90
2006,04,23,09,44,15.90
2006,04,23,09,45,15.90
2006,04,23,09,46,15.90
2006,04,23,09,47,15.90
2006,04,23,09,48,15.90
2006,04,23,09,49,15.90
2006,04,23,09,50,15.80
2006,04,23,09,51,15.80
2006,04,23,09,52,15.80
2006,04,23,09,53,15.80
2006,04,23,09,54,15.90
2006,04,23,09,55,15.90
2006,04,23,09,56,16.00
2006,04,23,09,57,16.10
2006,04,23,09,58,16.10
2006,04,23,09,59,16.10
2006,04,23,10,00,16.20
2006,04,23,10,01,16.30
2006,04,23,10,02,16.20
2006,04,23,10,03,16.20
2006,04,23,10,04,16.30
2006,04,23,10,05,16.40
2006,04,23,10,06,16.40
2006,04,23,10,07,16.40
2006,04,23,10,08,16.40
2006,04,23,10,09,16.40
2006,04,23,10,10,16.40
2006,04,23,10,11,16.40
2006,04,23,10,12,16.40
2006,04,23,10,13,16.40
2006,04,23,10,14,16.40
2006,04,23,10,15,16.40
2006,04,23,10,16,16.40
2006,04,23,10,17,16.40
2006,04,23,10,18,16.40
2006,04,23,10,19,16.40
2006,04,23,10,20,16.40
2006,04,23,10,21,16.40
2006,04,23,10,22,16.40
2006,04,23,10,23,16.40
2006,04,23,10,24,16.40
2006,04,23,10,25,16.40
2006,04,23,10,26,16.40
2006,04,23,10,27,16.50
2006,04,23,10,28,16.60
2006,04,23,10,29,16.70
2006,04,23,10,30,16.70
2006,04,23,10,31,16.70
2006,04,23,10,32,16.70
2006,04,23,10,33,16.70
2006,04,23,10,34,16.70
2006,04,23,10,35,16.60
2006,04,23,10,36,16.60
2006,04,23,10,37,16.60
2006,04,23,10,38,16.60
2006,04,23,10,39,16.70
2006,04,23,10,40,16.70
2006,04,23,10,41,16.70
2006,04,23,10,42,16.70
2006,04,23,10,43,16.60
2006,04,23,10,44,16.60
2006,04,23,10,45,16.50
2006,04,23,10,46,16.60
2006,04,23,10,47,16.60
2006,04,23,10,48,16.50
2006,04,23,10,49,16.40
2006,04,23,10,50,16.40
2006,04,23,10,51,16.30
2006,04,23,10,52,16.30
2006,04,23,10,53,16.30
2006,04,23,10,54,16.30
2006,04,23,10,55,16.40
2006,04,23,10,56,16.40
2006,04,23,10,57,16.50
2006,04,23,10,58,16.60
2006,04,23,10,59,16.60
2006,04,23,11,00,16.50
2006,04,23,11,01,16.40
2006,04,23,11,02,16.50
2006,04,23,11,03,16.60
2006,04,23,11,04,16.70
2006,04,23,11,05,16.70
2006,04,23,11,06,16.70
2006,04,23,11,07,16.70
2006,04,23,11,08,16.60
2006,04,23,11,09,16.60
2006,04,23,11,10,16.50
2006,04,23,11,11,16.40
2006,04,23,11,12,16.40
2006,04,23,11,13,16.40
2006,04,23,11,14,16.40
2006,04,23,11,15,16.40
2006,04,23,11,16,16.40
2006,04,23,11,17,16.40
2006,04,23,11,18,16.40
2006,04,23,11,19,16.50
2006,04,23,11,20,16.60
2006,04,23,11,21,16.60
2006,04,23,11,22,16.60
2006,04,23,11,23,16.60
2006,04,23,11,24,16.60
2006,04,23,11,25,16.60
2006,04,23,11,26,16.70
2006,04,23,11,27,16.70
2006,04,23,11,28,16.70
2006,04,23,11,29,16.70
2006,04,23,11,30,16.80
2006,04,23,11,31,16.90
2006,04,23,11,32,17.00
2006,04,23,11,33,17.10
2006,04,23,11,34,17.30
2006,04,23,11,35,17.30
2006,04,23,11,36,17.20
2006,04,23,11,37,17.10
2006,04,23,11,38,17.10
2006,04,23,11,39,17.20
2006,04,23,11,40,17.30
2006,04,23,11,41,17.30
2006,04,23,11,42,17.30
2006,04,23,11,43,17.30
2006,04,23,11,44,17.30
2006,04,23,11,45,17.30
2006,04,23,11,46,17.30
2006,04,23,11,47,17.30
2006,04,23,11,48,17.30
2006,04,23,11,49,17.40
2006,04,23,11,50,17.50
2006,04,23,11,51,17.50
2006,04,23,11,52,17.50
2006,04,23,11,53,17.50
2006,04,23,11,54,17.40
2006,04,23,11,55,17.30
2006,04,23,11,56,17.40
2006,04,23,11,57,17.50
2006,04,23,11,58,17.60
2006,04,23,11,59,17.60
2006,04,23,12,00,17.50
2006,04,23,12,01,17.60
2006,04,23,12,02,17.70
2006,04,23,12,03,17.80
2006,04,23,12,04,17.90
2006,04,23,12,05,17.90
2006,04,23,12,06,18.00
2006,04,23,12,07,18.20
2006,04,23,12,08,18.10
2006,04,23,12,09,18.10
2006,04,23,12,10,18.20
2006,04,23,12,11,18.20
2006,04,23,12,12,18.20
2006,04,23,12,13,18.20
2006,04,23,12,14,18.10
2006,04,23,12,15,18.00
2006,04,23,12,16,17.90
2006,04,23,12,17,18.10
2006,04,23,12,18,18.10
2006,04,23,12,19,18.20
2006,04,23,12,20,18.20
2006,04,23,12,21,18.30
2006,04,23,12,22,18.40
2006,04,23,12,23,18.50
2006,04,23,12,24,18.50
2006,04,23,12,25,18.40
2006,04,23,12,26,18.30
2006,04,23,12,27,18.30
2006,04,23,12,28,18.20
2006,04,23,12,29,18.00
2006,04,23,12,30,18.00
2006,04,23,12,31,18.10
2006,04,23,12,32,18.20
2006,04,23,12,33,18.30
2006,04,23,12,34,18.40
2006,04,23,12,35,18.60
2006,04,23,12,36,18.70
2006,04,23,12,37,18.70
2006,04,23,12,38,18.60
2006,04,23,12,39,18.60
2006,04,23,12,40,18.50
2006,04,23,12,41,18.50
2006,04,23,12,42,18.50
2006,04,23,12,43,18.60
2006,04,23,12,44,18.60
2006,04,23,12,45,18.80
2006,04,23,12,46,18.80
2006,04,23,12,47,18.90
2006,04,23,12,48,19.00
2006,04,23,12,49,19.00
2006,04,23,12,50,18.60
2006,04,23,12,51,18.40
2006,04,23,12,52,18.30
2006,04,23,12,53,18.20
2006,04,23,12,54,18.20
2006,04,23,12,55,18.40
2006,04,23,12,56,18.50
2006,04,23,12,57,18.60
2006,04,23,12,58,18.60
2006,04,23,12,59,18.50
2006,04,23,13,00,18.40
2006,04,23,13,01,18.40
2006,04,23,13,02,18.50
2006,04,23,13,03,18.50
2006,04,23,13,04,18.60
2006,04,23,13,05,18.70
2006,04,23,13,06,18.60
2006,04,23,13,07,18.60
2006,04,23,13,08,18.50
2006,04,23,13,09,18.50
2006,04,23,13,10,18.60
2006,04,23,13,11,18.60
2006,04,23,13,12,18.70
2006,04,23,13,13,18.70
2006,04,23,13,14,18.60
2006,04,23,13,15,18.50
2006,04,23,13,16,18.50
2006,04,23,13,17,18.50
2006,04,23,13,18,18.50
2006,04,23,13,19,18.70
2006,04,23,13,20,18.70
2006,04,23,13,21,18.80
2006,04,23,13,22,18.90
2006,04,23,13,23,18.90
2006,04,23,13,24,18.90
2006,04,23,13,25,18.80
2006,04,23,13,26,18.70
2006,04,23,13,27,18.60
2006,04,23,13,28,18.50
2006,04,23,13,29,18.50
2006,04,23,13,30,18.60
2006,04,23,13,31,18.70
2006,04,23,13,32,18.80
2006,04,23,13,33,18.80
2006,04,23,13,34,18.90
2006,04,23,13,35,18.90
2006,04,23,13,36,18.90
2006,04,23,13,37,18.90
2006,04,23,13,38,19.00
2006,04,23,13,39,19.10
2006,04,23,13,40,19.00
2006,04,23,13,41,19.10
2006,04,23,13,42,19.10
2006,04,23,13,43,19.30
2006,04,23,13,44,19.20
2006,04,23,13,45,19.10
2006,04,23,13,46,19.10
2006,04,23,13,47,19.10
2006,04,23,13,48,19.10
2006,04,23,13,49,19.20
2006,04,23,13,50,19.30
2006,04,23,13,51,19.20
2006,04,23,13,52,19.20
2006,04,23,13,53,19.20
2006,04,23,13,54,19.20
2006,04,23,13,55,19.20
2006,04,23,13,56,19.30
2006,04,23,13,57,19.40
2006,04,23,13,58,19.50
2006,04,23,13,59,19.50
2006,04,23,14,00,19.50
2006,04,23,14,01,19.60
2006,04,23,14,02,19.60
2006,04,23,14,03,19.60
2006,04,23,14,04,19.60
2006,04,23,14,05,19.60
2006,04,23,14,06,19.60
2006,04,23,14,07,19.60
2006,04,23,14,08,19.50
2006,04,23,14,09,19.50
2006,04,23,14,10,19.40
2006,04,23,14,11,19.40
2006,04,23,14,12,19.50
2006,04,23,14,13,19.50
2006,04,23,14,14,19.60
2006,04,23,14,15,19.70
2006,04,23,14,16,19.80
2006,04,23,14,17,19.90
2006,04,23,14,18,19.80
2006,04,23,14,19,19.80
2006,04,23,14,20,19.80
2006,04,23,14,21,19.80
2006,04,23,14,22,19.80
2006,04,23,14,23,19.70
2006,04,23,14,24,19.70
2006,04,23,14,25,19.70
2006,04,23,14,26,19.60
2006,04,23,14,27,19.60
2006,04,23,14,28,19.50
2006,04,23,14,29,19.50
2006,04,23,14,30,19.60
2006,04,23,14,31,19.60
2006,04,23,14,32,19.80
2006,04,23,14,33,19.90
2006,04,23,14,34,19.90
2006,04,23,14,35,19.80
2006,04,23,14,36,19.70
2006,04,23,14,37,19.70
2006,04,23,14,38,19.70
2006,04,23,14,39,19.80
2006,04,23,14,40,19.80
2006,04,23,14,41,19.90
2006,04,23,14,42,19.90
2006,04,23,14,43,19.90
2006,04,23,14,44,19.90
2006,04,23,14,45,19.90
2006,04,23,14,46,19.90
2006,04,23,14,47,19.90
2006,04,23,14,48,19.90
2006,04,23,14,49,19.90
2006,04,23,14,50,19.90
2006,04,23,14,51,19.90
2006,04,23,14,52,20.00
2006,04,23,14,53,20.20
2006,04,23,14,54,20.30
2006,04,23,14,55,20.20
2006,04,23,14,56,20.20
2006,04,23,14,57,20.20
2006,04,23,14,58,20.20
2006,04,23,14,59,20.20
2006,04,23,15,00,20.20
2006,04,23,15,01,20.10
2006,04,23,15,02,20.00
2006,04,23,15,03,19.90
2006,04,23,15,04,19.90
2006,04,23,15,05,20.00
2006,04,23,15,06,20.10
2006,04,23,15,07,20.10
2006,04,23,15,08,20.10
2006,04,23,15,09,20.10
2006,04,23,15,10,20.00
2006,04,23,15,11,19.90
2006,04,23,15,12,19.90
2006,04,23,15,13,19.90
2006,04,23,15,14,20.00
2006,04,23,15,15,20.00
2006,04,23,15,16,19.90
2006,04,23,15,17,19.90
2006,04,23,15,18,19.90
2006,04,23,15,19,19.90
2006,04,23,15,20,20.00
2006,04,23,15,21,20.10
2006,04,23,15,22,20.20
2006,04,23,15,23,20.40
2006,04,23,15,24,20.50
2006,04,23,15,25,20.60
2006,04,23,15,26,20.60
2006,04,23,15,27,20.50
2006,04,23,15,28,20.20
2006,04,23,15,29,20.10
2006,04,23,15,30,20.10
2006,04,23,15,31,20.20
2006,04,23,15,32,20.20
2006,04,23,15,33,20.30
2006,04,23,15,34,20.50
2006,04,23,15,35,20.60
2006,04,23,15,36,20.60
2006,04,23,15,37,20.50
2006,04,23,15,38,20.40
2006,04,23,15,39,20.50
2006,04,23,15,40,20.50
2006,04,23,15,41,20.60
2006,04,23,15,42,20.50
2006,04,23,15,43,20.40
2006,04,23,15,44,20.20
2006,04,23,15,45,20.20
2006,04,23,15,46,20.20
2006,04,23,15,47,20.20
2006,04,23,15,48,20.30
2006,04,23,15,49,20.30
2006,04,23,15,50,20.20
2006,04,23,15,51,20.20
2006,04,23,15,52,20.30
2006,04,23,15,53,20.40
2006,04,23,15,54,20.50
2006,04,23,15,55,20.60
2006,04,23,15,56,20.70
2006,04,23,15,57,20.70
2006,04,23,15,58,20.70
2006,04,23,15,59,20.60
2006,04,23,16,00,20.60
2006,04,23,16,01,20.60
2006,04,23,16,02,20.60
2006,04,23,16,03,20.70
2006,04,23,16,04,20.80
2006,04,23,16,05,20.70
2006,04,23,16,06,20.80
2006,04,23,16,07,20.70
2006,04,23,16,08,20.80
2006,04,23,16,09,20.70
2006,04,23,16,10,20.70
2006,04,23,16,11,20.80
2006,04,23,16,12,20.80
2006,04,23,16,13,20.80
2006,04,23,16,14,20.90
2006,04,23,16,15,20.80
2006,04,23,16,16,20.80
2006,04,23,16,17,20.70
2006,04,23,16,18,20.70
2006,04,23,16,19,20.60
2006,04,23,16,20,20.60
2006,04,23,16,21,20.60
2006,04,23,16,22,20.70
2006,04,23,16,23,20.70
2006,04,23,16,24,20.70
2006,04,23,16,25,20.60
2006,04,23,16,26,20.70
2006,04,23,16,27,20.60
2006,04,23,16,28,20.60
2006,04,23,16,29,20.60
2006,04,23,16,30,20.70
2006,04,23,16,31,20.70
2006,04,23,16,32,20.70
2006,04,23,16,33,20.70
2006,04,23,16,34,20.70
2006,04,23,16,35,20.60
2006,04,23,16,36,20.50
2006,04,23,16,37,20.50
2006,04,23,16,38,20.50
2006,04,23,16,39,20.60
2006,04,23,16,40,20.60
2006,04,23,16,41,20.70
2006,04,23,16,42,20.80
2006,04,23,16,43,20.80
2006,04,23,16,44,20.80
2006,04,23,16,45,20.70
2006,04,23,16,46,20.70
2006,04,23,16,47,20.60
2006,04,23,16,48,20.60
2006,04,23,16,49,20.70
2006,04,23,16,50,20.80
2006,04,23,16,51,20.80
2006,04,23,16,52,20.90
2006,04,23,16,53,20.90
2006,04,23,16,54,20.90
2006,04,23,16,55,20.90
2006,04,23,16,56,20.80
2006,04,23,16,57,20.80
2006,04,23,16,58,20.80
2006,04,23,16,59,20.80
2006,04,23,17,00,20.90
2006,04,23,17,01,20.90
2006,04,23,17,02,21.00
2006,04,23,17,03,21.00
2006,04,23,17,04,21.00
2006,04,23,17,05,21.00
2006,04,23,17,06,21.00
2006,04,23,17,07,20.90
2006,04,23,17,08,20.90
2006,04,23,17,09,20.90
2006,04,23,17,10,20.90
2006,04,23,17,11,21.00
2006,04,23,17,12,21.00
2006,04,23,17,13,21.00
2006,04,23,17,14,21.00
2006,04,23,17,15,21.00
2006,04,23,17,16,21.10
2006,04,23,17,17,21.10
2006,04,23,17,18,21.00
2006,04,23,17,19,20.90
2006,04,23,17,20,20.90
2006,04,23,17,21,20.90
2006,04,23,17,22,20.90
2006,04,23,17,23,20.90
2006,04,23,17,24,20.90
2006,04,23,17,25,21.00
2006,04,23,17,26,21.00
2006,04,23,17,27,21.00
2006,04,23,17,28,21.10
2006,04,23,17,29,21.10
2006,04,23,17,30,21.10
2006,04,23,17,31,21.10
2006,04,23,17,32,21.10
2006,04,23,17,33,21.10
2006,04,23,17,34,21.10
2006,04,23,17,35,21.10
2006,04,23,17,36,21.10
2006,04,23,17,37,21.20
2006,04,23,17,38,21.30
2006,04,23,17,39,21.30
2006,04,23,17,40,21.40